STARLINK-4448 (53504 NORAD) Tracking and Keplerian Element Data

This shows tracking and keplerian element data for the satellite.

Feedback or suggestion? Click here.




ElementValue
Catalog53504
NameSTARLINK-4448
Epoch Orbit1552
Epoch Day325.26561255
Epoch Year2022
RAAN84.3283
Inclination97.6554
Eccentricity0.0002562
Argument of Perigee17.6237
Mean Anonmoly342.5075
Mean Motion15.01263053
Decay Rate4.58E-06
L11 53504U 22099AR 22325.26561255 .00000458 00000+0 40269-4 0 9996
L22 53504 97.6554 84.3283 0002562 17.6237 342.5075 15.01263053 15529



Live tracking and technical data element details for STARLINK-4448 (NORAD 53504). STARLINK-4448 can be tracked NOW for your location showing map with azimuth and elevation plus other details from your city location.







IsCatalogInMostPopularTable: catalog: 53504, numindb: 3
Update: records affected: 1



GetName: 53504 STARLINK-4448

Hit Count: updated at: Tue, 29 Nov 2022 01:59:40 GMT